Weather History for KHZY - September, 2013

Change the Weather History Date:

Thursday, September 26, 2013

  Actual Average (KYNG) Record (KYNG)
Temperature  
Mean Temperature 55 °F 58 °F  
Max Temperature 70 °F 68 °F 89 °F (1934)
Min Temperature 41 °F 48 °F 35 °F (1966)
Degree Days  
Heating Degree Days 10 8  
Month to date heating degree days 111  
Since 1 July heating degree days 149  
Cooling Degree Days 0 1  
Month to date cooling degree days 48  
Year to date cooling degree days 534  
Growing Degree Days 5 (Base 50)    
Moisture  
Dew Point 44 °F    
Average Humidity 76    
Maximum Humidity 93    
Minimum Humidity 39    
Precipitation  
Precipitation 0.01 in 0.12 in - ()
Month to date precipitation 3.28  
Year to date precipitation 29.50  
Snow  
Snow 0.00 in 0.00 in - ()
Month to date snowfall 0.0  
Since 1 July snowfall 0.0  
Since 1 September snowfall 0.0  
Snow Depth -    
Sea Level Pressure  
Sea Level Pressure 30.06 in    
Wind  
Wind Speed 1 mph (NE)    
Max Wind Speed 9 mph    
Max Gust Speed -    
Visibility 8 miles    
Events      
T = Trace of Precipitation, MM = Missing Value Source: NWS Daily Summary

Daily Weather History Graph

Daily Weather History Graph

Search for Another Location

Airport or City:

Trip Planner

Search our weather history database for the weather conditions in past years. The results will help you decide how hot, cold, wet, or windy it might be!

Date:

Astronomy

Sep. 26, 2013 Rise Set
Actual Time 7:14 AM EDT 7:12 PM EDT
Civil Twilight 6:46 AM EDT 7:40 PM EDT
Nautical Twilight 6:14 AM EDT 8:12 PM EDT
Astronomical Twilight 5:41 AM EDT 8:45 PM EDT
Moon No Moon Rise 2:10 PM EDT (9/26)
Length of Visible Light 12h 53m
Length of Day
11h 58m
Waning Gibbous, 55% of the Moon is Illuminated
Sep 26
Waning Gibbous
Sep 26
Last Quarter
Oct 4
New
Oct 11
First Quarter
Oct 18
Full

Hourly Weather History & Observations

Time (EDT) Temp. Windchill Dew Point Humidity Pressure Visibility Wind Dir Wind Speed Gust Speed Precip Events Conditions
12:53 AM 48.0 °F - 45.0 °F 89% 29.99 in 10.0 mi Calm Calm - N/A   Clear
1:50 AM 46.4 °F - 42.8 °F 87% 30.00 in 2.5 mi Calm Calm - N/A   Clear
1:53 AM 46.0 °F - 43.0 °F 89% 30.00 in 2.5 mi Calm Calm - N/A   Clear
2:00 AM 46.4 °F - 42.8 °F 87% 30.00 in 2.0 mi Calm Calm - 0.01 in   Partly Cloudy
2:10 AM 44.6 °F - 42.8 °F 93% 30.00 in 1.5 mi Calm Calm - 0.01 in   Mostly Cloudy
2:21 AM 44.6 °F - 42.8 °F 93% 30.00 in 1.8 mi Calm Calm - 0.01 in   Scattered Clouds
2:24 AM 44.6 °F - 42.8 °F 93% 30.00 in 3.0 mi Calm Calm - 0.01 in   Scattered Clouds
2:53 AM 45.0 °F - 41.0 °F 86% 30.00 in 10.0 mi Calm Calm - 0.01 in   Clear
3:53 AM 43.0 °F - 39.9 °F 89% 30.00 in 10.0 mi Calm Calm - N/A   Clear
4:53 AM 42.1 °F - 39.0 °F 89% 30.01 in 5.0 mi Calm Calm - N/A   Clear
4:56 AM 42.8 °F 41.1 °F 39.2 °F 87% 30.01 in 1.5 mi East 3.5 mph - N/A   Clear
5:07 AM 42.8 °F - 39.2 °F 87% 30.01 in 3.0 mi Calm Calm - N/A   Clear
5:53 AM 41.0 °F - 37.9 °F 89% 30.02 in 10.0 mi Calm Calm - N/A   Clear
6:53 AM 41.0 °F - 37.9 °F 89% 30.04 in 10.0 mi Calm Calm - N/A   Clear
7:53 AM 41.0 °F - 37.9 °F 89% 30.07 in 10.0 mi Calm Calm - N/A   Clear
8:53 AM 50.0 °F - 46.9 °F 89% 30.08 in 10.0 mi Calm Calm - N/A   Clear
9:53 AM 57.9 °F - 50.0 °F 75% 30.09 in 10.0 mi East 4.6 mph - N/A   Clear
10:53 AM 64.0 °F - 51.1 °F 63% 30.09 in 10.0 mi ENE 3.5 mph - N/A   Clear
11:53 AM 66.0 °F - 48.0 °F 52% 30.09 in 10.0 mi NNW 6.9 mph - N/A   Clear
12:53 PM 69.1 °F - 43.0 °F 39% 30.09 in 10.0 mi NNE 6.9 mph - N/A   Clear
1:53 PM 66.9 °F - 45.0 °F 45% 30.09 in 10.0 mi North 6.9 mph - N/A   Clear
2:53 PM 69.1 °F - 45.0 °F 42% 30.08 in 10.0 mi NNE 9.2 mph - N/A   Clear
3:53 PM 68.0 °F - 45.0 °F 43% 30.09 in 10.0 mi NNE 6.9 mph - N/A   Clear
4:53 PM 66.9 °F - 46.9 °F 49% 30.09 in 10.0 mi Variable 6.9 mph - N/A   Clear
5:53 PM 64.9 °F - 46.0 °F 50% 30.11 in 10.0 mi NE 8.1 mph - N/A   Clear
6:53 PM 62.1 °F - 48.9 °F 62% 30.12 in 10.0 mi Calm Calm - N/A   Clear
7:53 PM 57.0 °F - 48.9 °F 74% 30.12 in 10.0 mi Calm Calm - N/A   Clear
8:53 PM 55.9 °F - 48.9 °F 77% 30.12 in 10.0 mi NE 3.5 mph - N/A   Clear
9:53 PM 55.0 °F - 48.9 °F 80% 30.14 in 10.0 mi ENE 3.5 mph - N/A   Clear
10:53 PM 51.1 °F - 46.9 °F 86% 30.14 in 10.0 mi Calm Calm - N/A   Clear
11:53 PM 48.9 °F - 46.0 °F 90% 30.15 in 10.0 mi Calm Calm - N/A   Clear